Regional Weather Roundup
Issued by NWS Eureka, CA

Home | Current Version | Previous Version | Text Only | Print | Product List | Glossary On
Versions: 1 2 3 4 5 6 7 8 9 10 11 12 13 14 15 16 17 18 19 20 21 22 23 24 25 26 27
000
ASUS46 KEKA 031014
RWREKA
Eureka Area Weather Roundup
National Weather Service Eureka CA
300 AM PDT TUE AUG 03 2021

Note: "fair" indicates few or no clouds below 12,000 feet with no
significant weather and/or obstructions to visibility.

Southwest Oregon...

CITY           SKY/WX    TMP DP  RH WIND       PRES   REMARKS
MEDFORD        CLOUDY    75  50  41 CALM      30.03S
KLAMATH FALLS  PTCLDY    54  38  54 CALM      30.19S
NORTH BEND     CLOUDY    58  55  90 N8        30.15F
ROSEBURG       CLEAR     65  50  58 N7        30.08S
SEXTON SUMMIT  CLEAR     66  53  63 N8        30.17S
BROOKINGS      LGT RAIN  51  51 100 CALM      30.08S VSB 1/4

Northwest California...

CITY           SKY/WX    TMP DP  RH WIND       PRES   REMARKS
CRESCENT CITY  FOG       52  51  97 S6        30.08S VSB 1/2
MCKINLEYVILLE  FOG       51  51 100 CALM      30.08F VSB 1
EUREKA         FOG       51  32  48 S5        30.08F VSB 1
FORTUNA        CLOUDY    50  50 100 CALM      30.08F VSB 1/4
WEAVERVILLE    NOT AVBL
TRINITY CENTER NOT AVBL
UKIAH          CLEAR     59  49  69 CALM      30.02S

North & Central California...

CITY           SKY/WX    TMP DP  RH WIND       PRES   REMARKS
YREKA          CLEAR     64  28  25 CALM      30.11S
MOUNT SHASTA   CLEAR     52  29  41 CALM      30.16S
REDDING        CLEAR     66  42  41 CALM      29.96F
RED BLUFF      CLEAR     67  42  40 NW6       29.96F
CHICO            N/A     73  41  31 CALM      29.96S
YUBA CITY      PTCLDY    67  50  54 CALM      29.96R
SACRAMENTO     CLEAR     62  52  69 S5        29.96S
SANTA ROSA     CLOUDY    54  53  97 SW3       30.03F
NAPA           CLEAR     54  52  93 W8        30.03S
TRAVIS AFB     NOT AVBL
SAN FRANCISCO  PTCLDY    55  53  93 W13       30.03F
OAKLAND        CLOUDY    58  54  86 W6        30.06F
STOCKTON       NOT AVBL
SALINAS        CLOUDY    60  54  80 W6        30.04F
MONTEREY       CLOUDY    60  55  83 W5        30.05F

$$



USA.gov is the U.S. government's official web portal to all federal, state and local government web resources and services.